EW4264 Weather Reports


Display with metric or nautical units.
time (UTC)temp
F
wind
direction
speed
MPH
gust
MPH
rain 1hr
in
rain 24hr
in
rain mn
in
humidity
%
barometer
mb
20190921004811 85 28 0.0 21.0 0.00 0.00 0.00 67 1012.0
20190921003215 85 324 1.0 15.0 0.00 0.00 0.00 67 1011.9
20190921001650 86 27 1.0 21.0 0.00 0.00 0.00 66 1011.6
20190921000226 86 360 4.0 23.0 0.00 0.00 0.00 65 1011.3
20190920234646 87 20 7.0 22.0 0.00 0.00 0.00 63 1011.1
20190920233211 88 16 8.0 25.0 0.00 0.00 0.00 62 1010.9
20190920231637 88 35 8.0 19.0 0.00 0.00 0.00 60 1010.8
20190920230130 89 360 0.0 17.0 0.00 0.00 0.00 61 1010.7
20190920224637 89 31 11.0 21.0 0.00 0.00 0.00 59 1010.8
20190920223216 90 45 4.0 20.0 0.00 0.00 0.00 57 1010.7
20190920221603 89 355 3.0 17.0 0.00 0.00 0.00 59 1010.7
20190920220141 91 12 14.0 32.0 0.00 0.00 0.00 55 1010.6
20190920214806 93 45 8.0 19.0 0.00 0.00 0.00 49 1010.4
20190920213148 93 15 3.0 19.0 0.00 0.00 0.00 48 1010.3
20190920211635 92 15 4.0 17.0 0.00 0.00 0.00 47 1010.5
20190920210105 92 360 3.0 21.0 0.00 0.00 0.00 47 1010.7
20190920204638 93 97 0.0 17.0 0.00 0.00 0.00 48 1010.8
20190920201647 92 14 5.0 14.0 0.00 0.00 0.00 46 1010.9
20190920200108 94 350 0.0 13.0 0.00 0.00 0.00 48 1010.9
20190920194632 92 14 0.0 14.0 0.00 0.00 0.00 50 1011.1
20190920193241 92 19 2.0 14.0 0.00 0.00 0.00 48 1011.3
20190920191636 91 27 2.0 25.0 0.00 0.00 0.00 49 1011.5
20190920190112 91 26 3.0 15.0 0.00 0.00 0.00 50 1011.7
20190920184550 90 344 3.0 17.0 0.00 0.00 0.00 51 1011.8
20190920183128 91 245 0.0 9.0 0.00 0.00 0.00 49 1012.1
20190920181622 90 34 0.0 20.0 0.00 0.00 0.00 51 1012.3
20190920180108 90 88 11.0 19.0 0.00 0.00 0.00 51 1012.5
20190920174553 89 76 1.0 12.0 0.00 0.00 0.00 53 1012.7
20190920173114 89 34 0.0 14.0 0.00 0.00 0.00 55 1013.0
20190920171552 89 57 1.0 16.0 0.00 0.00 0.00 55 1013.1
20190920170037 88 26 9.0 20.0 0.00 0.00 0.00 55 1013.3
20190920164530 88 27 4.0 16.0 0.00 0.00 0.00 56 1013.4
20190920163018 87 21 3.0 20.0 0.00 0.00 0.00 58 1013.5
20190920161549 87 52 5.0 16.0 0.00 0.00 0.00 62 1013.7
20190920160051 86 5 6.0 15.0 0.00 0.00 0.00 63 1013.7
20190920154522 85 355 7.0 20.0 0.00 0.00 0.00 63 1013.8
20190920153012 84 38 6.0 17.0 0.00 0.00 0.00 69 1013.8
20190920151506 84 38 7.0 18.0 0.00 0.00 0.00 69 1013.7
20190920150007 83 44 13.0 20.0 0.00 0.00 0.00 72 1013.8
20190920144651 81 360 5.0 16.0 0.00 0.00 0.00 80 1013.7
20190920143242 79 34 7.0 15.0 0.00 0.00 0.00 85 1013.7
20190920141625 80 51 7.0 15.0 0.00 0.00 0.00 85 1013.5
20190920140200 80 15 6.0 16.0 0.00 0.00 0.00 85 1013.3
20190920134615 79 5 5.0 12.0 0.00 0.00 0.00 88 1013.2
20190920133155 78 22 3.0 10.0 0.00 0.00 0.00 90 1013.1
20190920131609 78 340 2.0 9.0 0.00 0.00 0.00 91 1013.0
20190920130135 77 102 3.0 9.0 0.00 0.00 0.00 91 1012.8
20190920124706 78 28 5.0 9.0 0.00 0.00 0.00 92 1012.5
20190920123134 78 360 3.0 6.0 0.00 0.00 0.00 91 1012.4
20190920121634 78 5 3.0 10.0 0.00 0.00 0.00 91 1012.3
20190920120103 78 360 4.0 9.0 0.00 0.00 0.00 91 1012.3
20190920114545 78 23 4.0 8.0 0.00 0.00 0.00 91 1012.2
20190920113118 78 45 3.0 10.0 0.00 0.00 0.00 91 1012.1
20190920111629 78 15 4.0 11.0 0.00 0.00 0.00 91 1011.9
20190920110047 78 33 4.0 13.0 0.00 0.00 0.00 91 1011.6
20190920104610 78 17 4.0 8.0 0.00 0.00 0.00 91 1011.6
20190920103028 78 26 4.0 9.0 0.00 0.00 0.00 91 1011.4
20190920101603 78 40 2.0 5.0 0.00 0.00 0.00 91 1011.5
20190920100026 78 16 2.0 5.0 0.00 0.00 0.00 91 1011.4
20190920094516 79 19 3.0 6.0 0.00 0.00 0.00 91 1011.2
20190920093027 79 11 2.0 5.0 0.00 0.00 0.00 91 1011.1
20190920091521 79 23 3.0 5.0 0.00 0.00 0.00 91 1010.9
20190920090046 79 24 2.0 6.0 0.00 0.00 0.00 91 1010.8
20190920084525 79 21 3.0 10.0 0.00 0.00 0.00 90 1010.8
20190920083034 79 15 3.0 10.0 0.00 0.00 0.00 90 1010.8
20190920081523 79 28 4.0 13.0 0.00 0.00 0.00 90 1010.6
20190920080022 79 27 4.0 16.0 0.00 0.00 0.00 91 1010.6
20190920074523 79 24 6.0 13.0 0.00 0.00 0.00 91 1010.7
20190920073014 78 10 7.0 15.0 0.00 0.00 0.00 91 1010.6
20190920071513 78 102 5.0 12.0 0.00 0.00 0.00 93 1010.7
20190920070007 77 18 6.0 12.0 0.00 0.00 0.00 92 1010.9
20190920064735 77 40 2.0 8.0 0.00 0.00 0.00 92 1010.9
20190920063109 77 5 4.0 9.0 0.00 0.00 0.00 92 1010.9
20190920061711 76 355 2.0 10.0 0.00 0.00 0.00 92 1010.9
20190920060145 76 340 2.0 10.0 0.00 0.00 0.00 91 1010.8
20190920054652 76 19 3.0 11.0 0.00 0.00 0.00 91 1010.7
20190920053115 76 332 0.0 0.0 0.00 0.00 0.00 91 1010.7
20190920051631 75 57 0.0 0.0 0.00 0.00 0.00 90 1010.8
20190920050143 75 32 0.0 0.0 0.00 0.00 0.00 89 1010.8
20190920044705 75 21 0.0 0.0 0.00 0.00 0.00 89 1010.8
20190920043101 75 17 0.0 0.0 0.00 0.00 0.00 88 1010.7
20190920041550 75 355 0.0 0.0 0.00 0.00 0.00 88 1010.7
20190920040150 75 22 0.0 0.0 0.00 0.00 0.00 88 1010.6
20190920034550 75 31 0.0 4.0 0.00 0.00 0.00 87 1010.3
20190920033113 76 327 0.0 6.0 0.00 0.00 0.00 86 1010.0
20190920031648 76 12 2.0 8.0 0.00 0.00 0.00 85 1010.0
20190920030141 76 44 7.0 13.0 0.00 0.00 0.00 85 1009.5
20190920024605 76 21 1.0 9.0 0.00 0.00 0.00 86 1009.6
20190920023148 76 33 1.0 16.0 0.00 0.00 0.00 86 1009.5
20190920021628 77 32 1.0 15.0 0.00 0.00 0.00 86 1009.0
20190920020102 77 355 7.0 16.0 0.00 0.00 0.00 86 1009.1
20190920014556 78 44 9.0 20.0 0.00 0.00 0.00 86 1008.8
20190920013047 78 5 4.0 15.0 0.00 0.00 0.00 86 1008.9
20190920011642 79 323 6.0 15.0 0.00 0.00 0.00 84 1008.7
20190920010146 80 355 9.0 16.0 0.00 0.00 0.00 81 1008.5